Location: Spruce Knob
(38.6995°N, 79.5330°W)
Time: 13:26:22
(UTC-04:00)

MOZHAYETS 4 - Pass Details

Date: 27 May 2024
Orbit: 652 x 670 km, 98.3° (Epoch: 14 June)

Event Time Altitude Azimuth Distance (km) Brightness Sun altitude
Rises 04:58:47 0° 176° (S) 2,985 10.7 -10.3°
Reaches altitude 10° 05:01:02 10° 181° (S) 2,074 9.9 -10.0°
Maximum altitude 05:05:28 56° 259° (W) 788 7.8 -9.3°
Drops below altitude 10° 05:09:56 10° 338° (NNW) 2,077 10.5 -8.6°
Sets 05:12:12 0° 343° (NNW) 2,990 11.3 -8.3°
